Andalusia, AL

9:27 AM CDT on August 19, 2017 (GMT -0500)
Andalusia

Weather History for K79J - May, 2013

Change the Weather History Date:

Tuesday, May 7, 2013

  Actual Average (KCEW) Record (KCEW)
Temperature  
Mean Temperature 65 °F -  
Max Temperature 75 °F 81 °F 92 °F (1949)
Min Temperature 55 °F 56 °F 44 °F (1989)
Growing Degree Days 15 (Base 50)    
Moisture  
Dew Point 53 °F    
Average Humidity 72    
Maximum Humidity 94    
Minimum Humidity 43    
Precipitation  
Precipitation 0.00 in - - ()
Sea Level Pressure  
Sea Level Pressure 29.99 in    
Wind  
Wind Speed 5 mph (NW)    
Max Wind Speed 13 mph    
Max Gust Speed 18 mph    
Visibility 9 miles    
Events      
Averages and records for this station are not official NWS values.
T = Trace of Precipitation, MM = Missing Value Source: NWS Daily Summary

Daily Weather History Graph

Daily Weather History Graph

Search for Another Location

Airport or City:

Trip Planner

Search our weather history database for the weather conditions in past years. The results will help you decide how hot, cold, wet, or windy it might be!

Date:

Astronomy

May. 07, 2013 Rise Set
Actual Time 5:55 AM CDT 7:29 PM CDT
Civil Twilight 5:29 AM CDT 7:55 PM CDT
Nautical Twilight 4:57 AM CDT 8:26 PM CDT
Astronomical Twilight 4:25 AM CDT 8:59 PM CDT
Moon 4:20 AM CDT (5/7) 5:34 PM CDT (5/7)
Length of Visible Light 14h 26m
Length of Day
13h 34m
Waning Crescent, 5% of the Moon is Illuminated
May 7
Waning Crescent
May 9
New
May 17
First Quarter
May 24
Full
May 31
Last Quarter

Hourly Weather History & Observations

Time (CDT) Temp. Dew Point Humidity Pressure Visibility Wind Dir Wind Speed Gust Speed Precip Events Conditions
12:56 AM 57.0 °F 52.0 °F 83% 29.95 in 10.0 mi West 3.5 mph - N/A   Mostly Cloudy
1:56 AM 57.9 °F 53.1 °F 84% 29.93 in 10.0 mi West 6.9 mph - N/A   Overcast
2:56 AM 57.9 °F 53.1 °F 84% 29.92 in 10.0 mi WNW 6.9 mph - N/A   Overcast
3:56 AM 57.0 °F 53.1 °F 87% 29.93 in 9.0 mi NNW 5.8 mph - N/A   Mostly Cloudy
4:52 AM 55.4 °F 51.8 °F 88% 29.95 in 8.0 mi West 3.5 mph - N/A   Scattered Clouds
4:56 AM 55.9 °F 52.0 °F 87% 29.94 in 8.0 mi Calm Calm - N/A   Mostly Cloudy
5:07 AM 55.4 °F 53.6 °F 94% 29.95 in 8.0 mi NW 3.5 mph - N/A   Mostly Cloudy
5:56 AM 57.0 °F 53.1 °F 87% 29.96 in 6.0 mi NNW 6.9 mph - N/A   Overcast
6:56 AM 57.0 °F 53.1 °F 87% 29.99 in 5.0 mi WNW 5.8 mph - N/A   Overcast
7:56 AM 57.9 °F 54.0 °F 87% 30.00 in 6.0 mi North 4.6 mph - N/A   Overcast
8:56 AM 60.1 °F 53.1 °F 78% 30.01 in 9.0 mi NW 5.8 mph - N/A   Overcast
9:08 AM 60.8 °F 53.6 °F 77% 30.02 in 9.0 mi NNW 3.5 mph - N/A   Mostly Cloudy
9:56 AM 64.0 °F 53.1 °F 67% 30.02 in 10.0 mi NW 6.9 mph - N/A   Mostly Cloudy
10:40 AM 66.2 °F 53.6 °F 64% 30.03 in 10.0 mi NNW 8.1 mph - N/A   Mostly Cloudy
10:56 AM 68.0 °F 53.1 °F 59% 30.02 in 10.0 mi NW 12.7 mph - N/A   Mostly Cloudy
11:56 AM 69.1 °F 52.0 °F 54% 30.01 in 10.0 mi NW 8.1 mph - N/A   Scattered Clouds
12:56 PM 71.1 °F 52.0 °F 51% 30.00 in 10.0 mi NW 9.2 mph - N/A   Mostly Cloudy
1:56 PM 73.9 °F 50.0 °F 43% 29.99 in 10.0 mi NW 8.1 mph - N/A   Partly Cloudy
2:56 PM 75.0 °F 52.0 °F 44% 29.97 in 10.0 mi NNW 12.7 mph 18.4 mph N/A   Scattered Clouds
3:56 PM 73.0 °F 52.0 °F 48% 29.97 in 10.0 mi NNW 9.2 mph - N/A   Mostly Cloudy
4:56 PM 73.9 °F 52.0 °F 46% 29.97 in 10.0 mi North 4.6 mph - N/A   Overcast
5:56 PM 73.0 °F 53.1 °F 49% 29.97 in 10.0 mi NNW 5.8 mph - N/A   Mostly Cloudy
6:56 PM 70.0 °F 55.0 °F 59% 29.98 in 10.0 mi North 3.5 mph - N/A   Clear
7:56 PM 64.0 °F 55.9 °F 75% 29.99 in 10.0 mi Calm Calm - N/A   Clear
8:56 PM 62.1 °F 55.9 °F 80% 30.01 in 10.0 mi Calm Calm - N/A   Clear
9:56 PM 60.1 °F 55.0 °F 83% 30.03 in 9.0 mi Calm Calm - N/A   Clear
10:56 PM 59.0 °F 54.0 °F 83% 30.04 in 6.0 mi Calm Calm - N/A   Haze
11:56 PM 57.9 °F 53.1 °F 84% 30.04 in 8.0 mi Calm Calm - N/A   Clear